Regional Weather Roundup
Issued by NWS Lake Charles, LA

Home | Current Version | Previous Version | Text Only | Print | Product List | Glossary On
Versions: 1 2 3 4 5 6 7 8 9 10 11 12 13 14 15 16 17 18 19 20 21 22 23 24 25 26 27
000
ASUS44 KLCH 260210
RWRLCH
REGIONAL WEATHER ROUNDUP
NATIONAL WEATHER SERVICE LAKE CHARLES LA
900 PM CDT MON JUL 25 2016

Note: "fair" indicates few or no clouds below 12,000 feet with no
significant weather and/or obstructions to visibility.


ACROSS SOUTHEAST TEXAS

CITY           SKY/WX    TMP DP  RH WIND       PRES   REMARKS
BEAUMONT       CLOUDY    77  76  96 NW6       29.92F
BEAUMONT CITY  FAIR      78  75  92 CALM      29.93F
ORANGE         CLOUDY    77  74  93 CALM      29.94F FOG
JASPER         CLOUDY    75  72  92 CALM      29.96S
$$

ACROSS CENTRAL LOUISIANA

CITY           SKY/WX    TMP DP  RH WIND       PRES   REMARKS
LEESVILLE      CLOUDY    75  74  96 N2        29.93F
FULLERTON      LGT RAIN  75  73  93 CALM      29.92F
ALEXANDRIA INT PTCLDY    75  74  96 CALM      29.92F
ESLER FIELD    MOCLDY    76  75  97 CALM      29.95R
DERIDDER       NOT AVBL
OAKDALE        CLOUDY    76  75  98 CALM      29.93R
OPELOUSAS      FAIR      74  74  98 CALM      29.94R
$$

ACROSS SOUTHWEST AND SOUTH CENTRAL LOUISIANA

CITY           SKY/WX    TMP DP  RH WIND       PRES   REMARKS
SULPHUR        MOCLDY    77  76  96 CALM      29.94R
LAKE CHARLES   CLOUDY    77  74  90 NE3       29.92F
CHENNAULT INT  PTCLDY    75  73  94 CALM      29.93S
CAMERON PHI    CLEAR     79  77  94 N3        29.92R
DEQUINCY       CLOUDY    75  75 100 CALM      29.94S
JENNINGS       FAIR      77  75  94 CALM      29.94R
LAFAYETTE      CLOUDY    76  75  97 N6        29.92R
NEW IBERIA     CLOUDY    76  74  93 CALM      29.92F
ABBEVILLE      FAIR      74  74 100 CALM      29.92R
PATTERSON      CLOUDY    79  77  94 NE5       29.92S
SALT POINT       N/A     79  77  94 CALM        N/A
$$

SELECTED SITES ACROSS THE REGION

CITY           SKY/WX    TMP DP  RH WIND       PRES   REMARKS
HOUSTON BUSH   CLOUDY    81  73  76 SW3       29.93S
HOUSTON HOBBY  CLOUDY    80  77  90 CALM      29.93F
GALVESTON      MOCLDY    81  78  91 CALM      29.94R
COLLEGE STAT   LGT RAIN  77  74  90 S5        29.94F
CONROE         LGT RAIN  76  75  97 CALM      29.94S
HUNTSVILLE     CLOUDY    75  73  93 S3        29.94S
LUFKIN         LGT RAIN  77  75  93 CALM      29.96S
SHREVEPORT     CLOUDY    86  75  69 E12       29.93R
MONROE         CLEAR     80  79  96 CALM      29.93S
NATCHEZ MS     PTCLDY    79  73  83 CALM      29.96F
BATON ROUGE    CLOUDY    79  74  84 NW3       29.93F
N.O. INTL ARPT MOCLDY    84  77  79 N3        29.92S
SLIDELL        PTCLDY    81  78  91 NE5       29.93S
$$

MARINE REPORTS

STATION/POSITION TIME  SKY/WX   TEMP    WIND        PRES    VSBY
                                AIR SEA DIR/SP/G
                 (UTC)          (F)     (DEG/KT/KT) (MB)    (MI)
BUOY 30 S HIGH I 0150            83 88  250/  4/  4 1013.4R
WVE H/P(F/S)=  1/ 5

SEA RIM ST PARK  0200            77     330/  4/  5 1014.0F
PORT ARTHUR      0100               89  290/  3/  5   N/A
SABINE PASS N    0100            80 89   10/  3/  4   N/A
TEXAS POINT      NOT AVBL
CALCASIEU PASS   0100            79 88  360/  6/  7   N/A
LK CHARLES BEACH 0100            77 88                N/A
MARSH ISLAND     0100            81                   N/A
FRESH WATER LOCK 0100            79 87   20/  7/  9   N/A
AMERADA PASS     0100            82 87  280/  8/ 10   N/A
$$




USA.gov is the U.S. government's official web portal to all federal, state and local government web resources and services.